Regional Weather Roundup
Issued by NWS

Home | Current Version | Previous Version | Graphics & Text | Print | Product List | Glossary On
Versions: 1 2 3 4 5 6 7 8 9 10 11 12 13 14 15 16 17 18 19 20 21 22 23 24 25 26 27 28 29 30 31 32 33 34 35 36 37 38 39 40 41 42 43 44 45 46 47 48 49 50
000
ASUS43 KDMX 292007
RWRIA

WEATHER ROUNDUP FOR IOWA
NATIONAL WEATHER SERVICE DES MOINES IA
300 PM CDT FRI MAY 29 2015

NOTE: "FAIR" INDICATES FEW OR NO CLOUDS BELOW 12,000 FEET WITH NO
SIGNIFICANT WEATHER AND/OR OBSTRUCTIONS TO VISIBILITY.

* - THESE STATIONS ARE NOT NWS STATIONS...THUS NOT UNDER NWS
QUALITY CONTROL.  THEY ALSO DO NOT REPORT WEATHER SUCH
AS PRECIPITATION OR FOG.

IAZ001>003-012>014-020>022-031>034-043>046-292100-
   NORTHWEST IOWA

CITY           SKY/WX    TMP DP  RH WIND       PRES   REMARKS
CARROLL *      MOSUNNY   75  64  69 SW17G24   29.89F
CHEROKEE *     CLOUDY    72  63  73 NW6       29.88F
DENISON *      MOSUNNY   75  66  73 SW9G16    29.88F
LE MARS *      CLOUDY    70  64  83 N5        29.91S
ORANGE CITY *  CLOUDY    64  61  88 NE14G20   29.92S
SHELDON *      CLOUDY    63  61  94 N22       29.92R
SIOUX CITY     CLOUDY    78  59  51 W7        29.87F
SPENCER        CLOUDY    74  64  71 W9        29.89F
STORM LAKE *   PTSUNNY   75  59  57 SW15G23   29.89F
$$

IAZ055>058-069>071-079>083-090>094-292100-
   SOUTHWEST IOWA

CITY           SKY/WX    TMP DP  RH WIND       PRES   REMARKS
ATLANTIC *     PTSUNNY   72  68  88 S13       29.92F
AUDUBON *      SUNNY     73  64  73 SW10G17   29.92F
CLARINDA *     PTSUNNY   73  66  78 S16       29.96S
COUNCIL BLFS * SUNNY     75  64  69 SW10G17   29.93R
CRESTON *      CLOUDY    70  66  88 SW15G22   29.95F
HARLAN  *      MOSUNNY   73  72  94 S14       29.94F
LAMONI         CLOUDY    70  64  81 SW14      29.96F
RED OAK *      PTSUNNY   73  66  78 S16       29.93S
SHENANDOAH *   MOSUNNY   75  64  69 S15       29.93F
$$

IAZ047>049-059>061-072>074-084-292100-
   CENTRAL IOWA

CITY           SKY/WX    TMP DP  RH WIND       PRES   REMARKS
AMES           CLOUDY    75  65  70 SW17      29.90F
ANKENY *       MOSUNNY   72  64  78 SW15      29.91F
CHARITON *     MOSUNNY   72  64  78 SW14G20   29.95F
DES MOINES     CLOUDY    73  62  68 SW17      29.92F
GRINNELL*      CLOUDY    75  63  64 SW13      29.93F
KNOXVILLE *      N/A     73  64  73 SW10      29.93
MARSHALLTOWN   CLOUDY    77  64  64 SW15      29.90F
PELLA *        CLOUDY    73  66  78 SW12G17   29.95F
PERRY *        PTSUNNY   75  64  69 SW16G23   29.90F
$$

IAZ004>006-015-016-023>025-035-036-292100-
   NORTH CENTRAL IOWA

CITY           SKY/WX    TMP DP  RH WIND       PRES   REMARKS
ALGONA *       MOSUNNY   73  64  73 SW10      29.88F
CLARION *      MOSUNNY   73  64  73 S14       29.89F
ESTHERVILLE    CLOUDY    69  63  81 E3        29.88S
FORT DODGE *   CLOUDY    68  63  83 SW10G18   29.90F THUNDER
MASON CITY     LGT RAIN  73  67  81 S8        29.90F
FOREST CITY *  SUNNY     70  63  78 W5        29.89F
IOWA FALLS *   HVY RAIN  66  63  88 S8        29.92S
$$

IAZ007>011-017>019-026>030-037>042-050>054-066-292100-
   NORTHEAST IOWA

CITY           SKY/WX    TMP DP  RH WIND       PRES   REMARKS
CEDAR RAPIDS   PTSUNNY   78  66  66 SW13G20   29.91F HX  80
CHARLES CITY * MOSUNNY   75  64  69 SW12G18   29.90F
CLINTON *      PTSUNNY   81  66  61 SW18G24   29.93F HX  83
DECORAH *      SUNNY     75  63  64 SW12G17   29.89F
DUBUQUE        PTSUNNY   75  68  78 W6        29.92F
MONTICELLO *   PTSUNNY   79  68  69 W13       29.91F HX  81
OELWEIN *      PTSUNNY   79  63  57 SW16G22   29.91F HX  80
WATERLOO       CLOUDY    80  64  58 SW13      29.88F HX  82
$$

IAZ064-065-067-068-078-292100-
   EAST CENTRAL IOWA

CITY           SKY/WX    TMP DP  RH WIND       PRES   REMARKS
DAVENPORT      MOSUNNY   80  65  59 SW15      29.93F HX  82
IOWA CITY      MOSUNNY   80  65  59 SW10      29.93F HX  82
MT. PLEASANT * PTSUNNY   79  64  61 SW16      29.95F HX  81
MUSCATINE *    PTSUNNY   81  66  61 SW13      29.93F HX  83
QUAD CITIES    MOSUNNY   81  67  62 SW14G22   29.92F HX  83
$$

IAZ062-063-075>077-085>089-095>099-292100-
   SOUTHEAST IOWA

CITY           SKY/WX    TMP DP  RH WIND       PRES   REMARKS
BURLINGTON     PTSUNNY   78  67  68 SW14      29.96S HX  80
FAIRFIELD *    PTSUNNY   79  66  65 SW17      29.95F HX  81
FORT MADISON * MOSUNNY   77  68  73 SW12      29.97F
KEOKUK *       PTSUNNY   77  68  73 SW15      29.96F
OSKALOOSA *      N/A     73  64  73 SW16      29.95F
CENTERVILLE *  SUNNY     72  72 100 SW12      29.98F
OTTUMWA        CLOUDY    73  68  84 SW8       29.94S
WASHINGTON *   PTSUNNY   81  66  61 SW14G23   29.95F HX  83
$$

ABBREVIATIONS USED IN REMARKS
   TC - TEMPERATURES IN CELSIUS
  WCI - WIND CHILL INDEX
   HX - HEAT INDEX
  VSB - VISIBILITY
$$




USA.gov is the U.S. government's official web portal to all federal, state and local government web resources and services.